TIMESTAMP,CO2_1_1_1,H2O_1_1_1,TAU_1_1_1,TAU_SSITC_TEST_1_1_1,H_1_1_1,H_SSITC_TEST_1_1_1,LE_1_1_1,LE_SSITC_TEST_1_1_1,FC_1_1_1,FC_SSITC_TEST_1_1_1,WD_0_0_1,WS_0_0_1,WS_MAX_0_0_1,U_SIGMA_0_0_1,V_SIGMA_0_0_1,W_SIGMA_0_0_1,USTAR_0_0_1,MO_LENGTH_0_0_1,ZL_0_0_1,FETCH_MAX_0_0_1,FETCH_70_0_0_1,FETCH_80_0_0_1,FETCH_90_0_0_1,PA_0_0_1,RH_0_0_1,TA_0_0_1,VPD_0_0_1,T_SONIC_0_0_1,T_SONIC_SIGMA_0_0_1
[yyyymmddHHMMSS],[mmolCO2 mol-1],[mmolH2O mol-1],[kg m-1 s-2],[#],[W m-2],[#],[W m-2],[#],[umolCO2 m-2 s-1],[#],[Decimal degrees],[m s-1],[m s-1],[m s-1],[m s-1],[m s-1],[m s-1],[m],[#],[m],[m],[m],[m],[kPa],[%],[deg C],[hPa],[deg C],[deg C]
20240621003000,403.19924318422761,14.379800362563982,8.5782285958317758E-002,0,-8.1653044906132770,0,29.541298327700513,0,-1.3975709462911250,0,36.935511483496413,1.1132571447953186,3.4081326917543695,0.64864804150166333,0.75547030816038618,0.29165918944972985,0.27318305929986508,210.85102730718569,9.0111014599512415E-002,118.82761477056313,217.25477792453540,259.99848153114851,325.48724633481629,95.466708650697612,82.750000000000000,14.624000000000024,2.8624794850942705,15.685627032515811,0.10553944388510365
20240621010000,403.84778979412198,14.612223115876491,0.12972817582565838,0,-6.5175131098754644,0,10.699663598883880,1,1.7160127987969707,0,16.174329961620089,1.3505423990604377,7.3358922419113064,0.95274779710798463,1.7078215333103908,0.42387930893001513,0.33572233158466019,490.33987628490672,3.8748633180631334E-002,103.90712061979964,189.97535596940017,227.35198071243559,284.61770128450354,95.478098563585064,86.176666666666662,14.246333333333325,2.2385130204764030,15.326720480177187,0.16881349403513804
20240621013000,405.35084630591024,14.477720033874595,0.16794447280137878,1,-20.992702822420924,1,23.749749803191900,1,2.3139055312563004,1,29.985773103940943,0.84550162624708791,6.8866403936003886,0.57486069116563054,2.0332113122789672,0.38463414220351855,0.38180259882026762,223.96896443764331,8.4833182346074190E-002,124.47660604217801,227.58293562240712,272.35864844721812,340.96070860297272,95.512753919270835,86.276666666666671,14.091333333333353,2.2001093936162373,15.188086234198693,0.12861454236881556
20240621020000,407.93687536339871,14.573835979778877,5.2443323521774804E-002,0,-3.3797873632994397,2,13.024286625496512,0,0.74163112811721166,1,36.857579545475630,1.6388838361144789,3.6420718144234052,0.63390784369425790,0.74572258936500124,0.26379477787838729,0.21335923953630406,242.70815219635170,7.8283320226627318E-002,105.66498810036553,193.18929836695230,231.19824890996355,289.43277265302061,95.479890751085065,87.359999999999999,13.995666666666693,2.0138945135225867,15.088884320576994,0.20669257452048570
20240621023000,410.06082601716855,14.422123196238013,2.4372169063856728E-002,0,-8.8273387388341469,0,0.50251812767682025,2,0.91172036867635087,0,64.397698520444990,1.8485600490708145,3.5684089341187426,0.49358245989896249,0.49441935093355055,0.23844583762693428,0.14542162719027565,29.419780069128194,0.64582399852600370,220.56448019746671,2154.0000000000000,4014.0000000000000,-9999.,95.466170162543406,87.206666666666663,13.859333333333325,2.0203620844368220,14.989852530585438,0.12646909657888480
20240621030000,411.42266420715163,14.609693116844699,0.11766099013032916,0,-14.750100249510961,0,8.3032231067951301,0,2.2956580192438034,0,82.762097486540668,2.2222317693402474,4.6971274234840514,0.67135262045371658,0.62796731341292367,0.35501379721214954,0.31965566498108061,186.99218930333143,0.10160852210344969,115.13427717979476,210.50217887900195,251.91734511150568,315.37062247995573,95.457924425130216,87.203333333333333,14.057666666666648,2.0470730047700774,15.187157947116475,0.11577650452318317
20240621033000,416.39196243110007,14.536913109379343,1.2654260468578146E-002,1,-9.2405731583811637,1,2.8085983154112664,0,1.8543178231904944,1,25.700132722464588,1.2166292830378727,3.2195220190754470,0.50098778131943011,0.74565534793569854,0.18924066090748695,0.10481976967693438,10.524395786459561,1.8053292925799076,189.17814005823843,1558.0000000000000,2767.0000000000000,7046.0000000000000,95.458276576388897,87.026666666666671,14.012000000000000,2.0691953352300629,15.088242542690637,0.36133597211520141
20240621040000,422.44813832483987,14.601865440456312,1.9569251668648386E-002,0,-4.1431983939918453,0,1.9686587774050621,1,0.77838167343076803,0,22.828860794677809,1.1810048227043013,2.3444686452993615,0.37412136329891293,0.35774404163830448,0.16823046333464925,0.13015717156547826,44.937655304896232,0.42280799634710436,119.56116341468058,1092.0000000000000,1996.0000000000000,5353.0000000000000,95.451237359375000,92.553333333333327,13.133666666666670,1.1216987434564976,14.270323839823448,0.10509249591577979
20240621043000,422.81521512797718,14.564297316890887,1.7617557232802932E-002,0,-9.5994770046206632,0,1.6134376600802616,2,2.5986268736234956,0,52.749321382701325,1.8156736586750581,3.2444624489068610,0.40374610990002313,0.41088337738657149,0.19865892246970956,0.12352083350346320,16.574478090581241,1.1463407714054723,303.76743909144670,2894.0000000000000,5354.0000000000000,-9999.,95.428911417240798,91.986666666666665,13.184666666666658,1.2110841271168671,14.374407778571538,0.17309309137785028
20240621050000,422.53470825858813,14.349637721474256,0.12582486664199358,1,-32.040936271900065,1,1.6652977519669603,2,2.0192926600597754,1,81.315439380469968,2.2948804944447332,4.9909396889047244,0.68247655026765730,0.85377627845883419,0.30676089121095790,0.33031105848412085,94.955178195698224,0.20009440623492780,132.84750369265541,242.88760628835408,290.67443036692674,363.88989413669970,95.429258462239588,88.390000000000001,13.568666666666672,1.7991528082091146,14.749674853854685,0.23156960657762171
20240621053000,424.30921305804844,14.601858027129969,0.12298226451533420,0,-31.493721252962665,0,-7.4892948219821278,0,0.64868762793907053,1,97.102903975919645,2.3227623282471428,5.5738006129879691,0.82635954103161580,0.54497862694745125,0.39229763755436503,0.32675327635918916,93.499323221246016,0.20321002703988125,108.17784018953674,197.78359341902583,236.69644668796639,296.31586383119719,95.397639205946177,88.640000000000001,13.788000000000011,1.7857095127311096,14.947838689168293,0.21106374746621012
20240621060000,427.53403172163127,14.628059647133220,6.2562730674027275E-002,0,-19.671161802921489,0,-1.0878770555547133,1,1.2852403782069857,1,101.74938301996741,2.2711844832376666,4.2542400828619060,0.59537921031980778,0.43418278942135768,0.28124321956747178,0.23300453003488111,54.277021215042488,0.35005605640595261,107.71613023437780,196.93944036615773,235.68621108338132,295.05116873317451,95.391315170138881,89.626666666666665,13.644333333333350,1.6154485363271034,14.820906286451589,0.21944148453364468
20240621063000,427.70596786128220,14.580728239372680,9.9807323395476044E-002,0,-33.517882064734103,0,2.1521093655178749,2,2.8068902200892163,0,107.96603096652224,2.4482814483734909,4.8122526188705894,0.60174760886333833,0.50390839195746429,0.36165903393958526,0.29427894296912277,64.167006528292092,0.29610232778464812,106.17512853988802,194.12199779134770,232.31445190620795,290.83012635085259,95.379624346788191,89.719999999999999,13.576666666666654,1.5938782788363233,14.742363627115935,0.22173212662479247
20240621070000,429.91812493551004,14.647839717429257,4.4549705048454957E-002,0,-24.303881670890355,0,-3.0525399844260606,1,2.4320371875841560,0,97.178174433806532,1.9877965147188827,4.0831156844210392,0.48524548780131233,0.36179496931449034,0.24433778045326263,0.19661811606693738,26.389946640085999,0.71997114125040473,148.95998015701664,1363.0000000000000,2493.0000000000000,6691.0000000000000,95.357484804904530,90.366666666666660,13.533333333333360,1.4894062465359070,14.747624964396209,0.24637793735406563
20240621073000,430.80848450907854,14.655626644912996,6.2968364051140133E-002,1,-24.668577586953951,0,-0.75166708193589116,0,1.9323819363898709,0,117.18913541572880,2.2776385627543965,3.6589198725072407,0.45956139930415513,0.40431938994482541,0.25683695501493142,0.23374287803460678,43.674824616971783,0.43503322947785145,116.12336161661825,212.31054068181695,254.08149232742628,318.07987798723747,95.331906291232656,91.036666666666662,13.423999999999978,1.3759807222525411,14.636114062839169,0.23731964274282588
20240621080000,427.69951176836082,14.328020910948647,4.4281323689523144E-002,0,-27.545878067718281,0,3.8538756398758633,2,2.6951518999333088,1,123.89385166755486,2.2229724857597120,4.1108912477751005,0.52670784427005690,0.40475616472817583,0.25391913850687220,0.19603642004191954,23.073713603064050,0.82344785615597282,184.90003453859291,1718.0000000000000,3157.0000000000000,8539.0000000000000,95.340412518229158,88.280000000000001,13.550333333333356,1.8140322338083592,14.720003224690799,0.24025496087745443
20240621083000,431.32807724430864,14.465400103553366,2.2455205624343631E-002,0,-15.057412118960105,0,-1.8411131323394514,1,1.0221179478037008,1,110.70793993773988,2.0907070167474879,3.5094938096551176,0.34817269711103460,0.33332909870270594,0.17005794113747211,0.13963524752494513,15.253661868818938,1.2456025420911689,316.34661471096433,2988.0000000000000,5516.0000000000000,-9999.,95.329425432291671,88.553333333333327,13.647666666666680,1.7829863883494819,14.841205838521319,0.22090333224557379
20240621090000,436.01270912756718,14.654871661341101,4.7905779336356195E-002,0,-20.302763479145430,0,2.3820505050205227,1,1.8033322218538861,0,123.10203137689217,2.3844908226525585,4.3473181767265840,0.45025606434303533,0.41244339587146256,0.23851172847905019,0.20392142429404564,35.227395856092109,0.53935295352563517,110.46314215247030,201.96185426694640,241.69675778021656,302.57565996019480,95.297163013205534,90.900000000000006,13.440666666666687,1.3984790983663493,14.654017495663766,0.24299123907088954
20240621093000,434.97775578675811,14.447337119000435,5.5045510363800856E-002,0,-24.322027570926444,0,0.25388527551232870,2,2.2727007224773077,0,121.95043635490919,2.4482788687428347,4.3932877821657925,0.49555269291796339,0.37006758634526415,0.24966543709861275,0.21865227281466904,36.250258230712618,0.52413419730904065,112.60854766617229,205.88433978798764,246.39097113212213,308.45225804116023,95.302085529730903,88.450000000000003,13.641999999999996,1.7984188158830239,14.818571307712148,0.23477892958906385
20240621100000,436.08786105935479,14.445416071748319,6.6450026170441517E-002,1,-31.410032505350117,0,1.5406581992287471,1,4.0945127648351987,0,125.55286259630699,2.6101768029779224,3.9519950322787993,0.47599470758139173,0.43285320061532057,0.28506931246508865,0.24020193477758367,37.215253281128916,0.51054334781686161,109.18317673743309,199.62166926422697,238.89615402355091,299.06963638858082,95.305674970703123,88.866666666666660,13.568333333333328,1.7252483384324706,14.725077360365162,0.26072863267938984
20240621103000,437.42375974664031,14.410642006619941,8.6607007417183718E-002,0,-23.364221093818522,0,2.1745010284563180,1,2.3610674200183581,0,120.34843213907830,2.5205696180544996,4.9394020462345303,0.56398208822348983,0.47545488141891007,0.34331561703132990,0.27421829342467158,74.436350780727210,0.25525163177289195,104.61096088275116,191.26220044841398,228.89200488914923,286.54562880783220,95.302610081597223,88.750000000000000,13.550999999999988,1.7413608024866745,14.682244752671977,0.20039443199449028
20240621110000,439.17308900031833,14.514454580491584,6.7063842061198767E-002,0,-17.223329934838222,0,0.66602801519303045,1,1.3070312395504236,0,120.35855492060648,2.6328231957742685,4.8335988982075282,0.50351097074265472,0.43269015326816107,0.31881125441746871,0.24133253345484854,68.823695559951076,0.27606770960808757,100.21221976934747,183.21989878658863,219.26742383244934,274.49679541917959,95.287982085069444,89.299999999999997,13.563999999999965,1.6576301935137918,14.698737176683210,0.15514112646424147
20240621113000,437.34264571855425,14.622029806313252,4.6820000614649450E-002,0,-8.1228057631439388,0,0.26973075788786455,2,-0.84014403081470612,0,126.27477568370321,1.8119743223657576,3.4986969899142193,0.46754051279821640,0.38844776326535863,0.25835904472354260,0.20170494675727774,85.214374932225141,0.22296707586145603,102.71862639979575,187.80240948444302,224.75151874821796,281.36223148734541,95.303962986111117,88.773333333333326,13.771000000000015,1.7628014737429363,14.892625040690064,0.15015654658342165
20240621120000,435.95167193628055,14.834716598080712,5.5756693096727900E-002,0,-1.2132432216340361,1,4.1469204205846344,0,-1.2504131966031025,0,124.05946882834064,1.7927937764224784,3.3738141962544872,0.44973014397003713,0.39027080483282101,0.25761464458229932,0.22028738633562917,743.19012532836973,2.5565463469532881E-002,110.47656585023904,201.98639706773650,241.72612924444351,302.61242954806221,95.300954570312499,87.653333333333336,14.188666666666677,1.9919309101977933,15.296463528103345,0.11942341541772472
20240621123000,435.69743101493077,15.113518755056711,6.1480614431604755E-002,1,-0.36327289895742537,2,5.2972361556391983,0,-3.9291877427885575,0,144.01616394426475,1.3835855353300024,2.8539653903841544,0.44040191909042470,0.38026532275215214,0.26557310315504418,0.23138793710616506,2877.1409128322443,6.6037780475953428E-003,112.14507368110009,205.03696152582964,245.37687577574701,307.18273099191123,95.322533707465283,88.129999999999995,14.396000000000015,1.9409064126950670,15.503797460767998,8.1674883558171291E-002
20240621130000,438.23351068845437,15.339668880689766,5.0542751178138688E-002,1,-2.7513235823551923,1,3.7023884571607835,0,-5.3370482669942403,1,149.50071050458774,1.4833116728902116,2.9515416156204544,0.41704080817327388,0.38460372248722913,0.28178964001058704,0.20986326386674287,283.46805132204912,6.7026953871475378E-002,98.915424771190402,180.84894393840582,216.42999642949221,270.94467301206151,95.336593317708335,88.329999999999998,14.593000000000018,1.9326567109990516,15.711578176710361,5.5660465315082994E-002
20240621133000,437.89256160669089,15.457618498200759,3.3841653481039027E-002,0,-3.6613968301776079,0,4.3856084254801946,1,-1.7746954079058337,0,127.91159870105862,1.6125402896943364,2.6397353458527979,0.37544799812927604,0.34286070916293548,0.21123745486021545,0.17179457580870436,116.83027970451199,0.16262907225810758,121.17001182777254,1018.0000000000000,1817.0000000000000,4673.0000000000000,95.314204730302265,88.109999999999999,14.746666666666670,1.9887186464767752,15.899348031122599,0.12657863721435089
20240621140000,431.53741760538912,15.838781159286219,5.1911549108421197E-002,1,14.029317953193580,1,33.603488980720449,1,-8.6571652276294415,1,127.01364965971999,0.93437879887638275,2.3378161670466895,0.52606585236650805,0.40051751481317088,0.22397437618923222,0.21307924671154566,-58.173771362988276,-0.32660767137556279,120.31759809389197,219.97894264538829,263.25861094063151,329.56854149445996,95.293196106336808,86.150000000000006,15.471666666666692,2.4271388536529073,16.589170674641935,0.30374814913179315
20240621143000,426.02547675188038,16.438728905186984,3.4026323885691205E-002,1,62.004362491038805,1,84.127765366528678,1,-25.380201007490623,1,96.625899230066082,0.40935430013546126,1.4758654829942368,0.26788484166300858,0.30912582820902229,0.18521725254495849,0.17281301718041106,-7.0209222011515111,-2.7061971996903460,7.8441069685578153,27.000000000000000,38.000000000000000,65.000000000000000,95.260661842447931,84.673333333333332,16.318333333333328,2.8353022499833309,17.508183371649807,0.48701206661501412
20240621150000,421.23780102927327,17.095333359357557,1.1299982605063211E-002,1,40.483531586896177,1,56.659576138199419,1,-5.6027714814198681,2,43.967138521051709,0.31305522249964285,1.3362873368807466,0.28971682674802851,0.18458122109985139,0.19615343901675431,9.9752606929659884E-002,-2.0681008968431462,-9.1871726514903411,8.4463677817821292,27.000000000000000,37.000000000000000,60.000000000000000,95.240192537760421,83.560000000000002,17.139999999999986,3.2041858621088339,18.318016888088664,0.27359962448638858
20240621153000,409.79290941675879,16.840897651674492,2.5071109564344236E-002,0,1.9723565884063359,1,34.591158925313302,0,0.48740090534511360,2,324.45488080804603,0.93660822214138129,2.6732113628938530,0.59713191156719669,0.24529234228321622,0.18080758082556336,0.14873023278817904,-140.66971936355270,-0.13506815884728970,77.273883881381423,300.00000000000000,435.00000000000000,781.00000000000000,95.217478658637148,79.584999999999994,17.670333333333360,4.1144951683768456,18.823694865756579,0.13938611587853028
20240621160000,408.21854337853182,17.591158686780087,4.5335902678311196E-002,1,7.9497071945731603,2,-14.439677151522735,2,-6.3998522858992928,1,267.68374301192870,1.2099771602324432,2.3776662625862257,0.34621193753066909,0.74906324441679262,0.19985048613288281,0.19974926245842597,-84.577182584724511,-0.22464687779079071,68.634570590752645,251.00000000000000,358.00000000000000,627.00000000000000,95.250879689236115,87.003333333333330,16.955666666666673,2.5036637966654189,18.121132420857862,0.21848671297035230
20240621163000,412.41107533882177,18.184390908096915,6.3221768452340871E-002,1,-7.6112910924616033,1,21.062029213669113,1,-4.6872827435849596,1,300.63453678756082,0.70764385403881325,2.6782943286426670,0.38446667829597364,0.92202467535126931,0.22204273855180384,0.23559200728132476,144.95536908019642,0.13107482751803604,131.29073563665770,240.04133777628448,287.26817390510075,359.62566524758944,95.257676736979164,94.403333333333336,16.194666666666649,1.0272054983793919,17.404753775702716,0.23085499034053400
20240621170000,410.44197563709963,18.008107809783777,9.3837975190585593E-002,0,8.8257114040791205,0,13.318571380538870,1,-4.6148012068643274,0,17.756216824481015,1.5229941179303745,5.7553328700279129,0.79637034726969236,0.52130128148243748,0.38889857052259141,0.28698877363601638,-225.84612655870558,-8.4128075559716159E-002,98.192371512783367,179.52697197602873,214.84793362687716,268.96411811758912,95.187776950086786,94.993333333333339,15.932999999999993,0.90369378620704544,16.784754211425820,0.18315887430540828
20240621173000,407.42649234627203,17.870994507387181,0.20733596602437282,0,-15.153634687587171,1,-1.8004874283331240,2,-5.1784833023766170,1,18.143977453488361,2.1065133370112648,6.3565526757022361,1.0429375459280867,0.72439151777094757,0.49082647967908993,0.42662745853969486,431.81592809224077,4.4000229644010222E-002,111.93130196170731,204.64611864378662,244.90913666860644,306.59717713371282,95.099921415722079,95.420000000000002,15.728999999999985,0.81596480072007349,17.039935837417943,0.48249783843513161
20240621180000,404.83871386036623,18.042603049660691,0.13505672556916878,1,6.7747742366307202,0,5.5623105617179078,0,-11.261904795029295,0,31.241516286204302,1.5080146328848449,4.1764611229092674,0.64943126108409066,0.47848181359107728,0.36301961772795782,0.34441363185251678,-508.30463676546606,-3.7379159318522370E-002,120.05357292763078,219.49622043495501,262.68091574371573,328.84533565972725,95.128720473307283,95.043333333333337,15.944999999999993,0.89535524791580434,17.160836246066708,0.60512511659594759
20240621183000,404.21132042734956,18.199309718248269,6.4124084783712593E-002,0,12.096037879182749,0,25.563922494592081,1,-15.166381176189239,0,57.799924146433099,1.0813065995738000,3.8304758548672240,0.56157776966108020,0.48260136816997490,0.28293707502103427,0.23738692450190665,-93.220026095892862,-0.20381886592109752,108.80990906090494,198.93921690391400,238.07943284902117,298.04719839372984,95.125920340277787,95.016666666666666,16.084333333333348,0.90821864655957141,16.681643074035719,0.19675541603548424
20240621190000,404.46573609518208,18.348604496068667,2.5843015535165013E-002,1,30.270015195541955,0,55.360785046660894,0,-14.994197782399150,0,58.976911876165332,0.66093503780467078,2.2283710163033992,0.30173920924186648,0.64558386647136146,0.25019747490815125,0.15076639509795567,-9.5432645833480638,-1.9909329594772933,23.943507323929623,77.000000000000000,107.00000000000000,177.00000000000000,95.126117267582586,94.383333333333326,16.317333333333352,1.0389690936340776,16.887082839339371,0.22278583753584696
20240621193000,403.07351455519978,18.334294310443397,8.6434928702626396E-002,1,18.976935019364973,1,58.627003649921988,1,-12.058787122712570,1,106.70458441229195,0.80828312399888136,2.6882634832648868,0.50543068083319564,0.37599454106893820,0.27568788539242134,0.27580022362946083,-93.173567912518536,-0.20392049403795789,125.25539624995453,229.00681250461992,274.06266541199676,343.09393563686666,95.107523531694497,93.686666666666667,16.418333333333351,1.1753750943444061,17.161443359802320,0.17514667472606055
20240621200000,402.46741405759695,18.540952791356471,0.13632524678433872,1,70.072303247067069,0,118.97602610542130,0,-19.834714985254106,0,91.647451920907969,0.85691747579146438,3.0590196645862959,0.58489584151346907,0.49337094849856156,0.39338061648084705,0.34669964541759968,-50.121095730872938,-0.37908189601482772,113.17936488429055,206.92797571552208,247.63993678904575,310.01581483597221,95.092833048394098,91.843333333333334,16.904999999999973,1.5662511065204490,17.932287976582870,0.34006104886252697
20240621203000,401.96966872042293,18.585855823299333,0.24350929888040743,1,65.028472391445405,0,133.04347086791535,0,-25.833570788345675,0,99.360686069063917,1.5841319841464154,3.7496564523523435,0.78745105433139517,0.59329830930302163,0.43854810787768939,0.46366428980986835,-129.13518419760985,-0.14713263560243306,130.91940586277761,239.36242852007453,286.45569292126095,358.60853546832288,95.039314560239205,90.816666666666663,17.111666666666679,1.7866403151568488,18.290654007893181,0.25265858315503753
20240621210000,403.75475351424393,18.438264453767736,0.16343654595018434,0,-1.1056474578849558,0,20.224388193107536,0,-5.6174014026981451,0,109.66578581390031,1.8259334369260662,4.3102188047782866,0.79465856172632310,0.55331230600104642,0.39125361265586972,0.37972917021845154,4170.7942597643414,4.5554872325621592E-003,122.25521099032842,223.52151699001195,267.49816764503362,334.87596340427149,95.005610314670136,91.689999999999998,16.829333333333352,1.5880523768790158,18.107841755337233,5.6035895687095882E-002
20240621213000,405.26189482536375,18.505407562745877,7.2330698567124818E-002,1,0.90242929702939834,1,24.481662887103347,0,-4.3031634033168853,0,83.316368455837534,1.0246244337997663,3.1298996624787190,0.49628265302871177,0.43854194058134011,0.28244565160259888,0.25257252229427701,-1503.7364174638881,-1.2635193095904575E-002,114.50273663347032,209.34752134079437,250.53551494192135,313.64073508156918,95.008237811414929,92.606666666666669,16.730333333333306,1.4040236765716667,18.085511832343229,3.9242638764892118E-002
20240621220000,404.17276126957819,18.423458551805357,2.6147067648227648E-002,0,-6.1147249332489613E-002,2,9.0011741000658976,0,-2.3817594689449031,0,94.816794823648308,0.84466642957707450,2.5645072499668209,0.43981108752340070,0.23020705976180891,0.16744647144814914,0.15186049207144303,4823.7676220618268,3.9388298708881034E-003,61.515056388753514,351.00000000000000,564.00000000000000,1205.0000000000000,95.010824144965270,92.033333333333331,16.758666666666670,1.5156266060763779,18.110400110880562,5.2138479940167938E-002
20240621223000,403.74215906368863,18.407575630919652,6.2466091974664288E-002,0,2.8540363894062732,0,19.905677700565395,0,-6.7137096159953051,0,86.951293429455191,1.0554649730155081,2.8010324604556196,0.47800319139020275,0.43136796243872888,0.26980222337828930,0.23480432905237084,-381.95701875657215,-4.9743816887703352E-002,112.04264691716720,204.84969273401947,245.15276286106703,306.90216821693781,94.988471607638900,91.150000000000006,16.893333333333317,1.6981285759916409,18.228477105034756,8.1647819767952268E-002